STARLINK-1209, 45206

Orbit data source: Space-Track

STARLINK-1209, 45206 is a payload satellite owned by SpaceX/Seattle (US) in LEO that was launched on Mon, 17 Feb 2020 UTC via an FALCON 9 launch vehicle from the Air Force Eastern Test Range (AFETR). Payload-class satellites include a variety of spacecraft equipped with specific instruments for various scientific and technological missions. These include communications satellites like Starlink; space stations such as the ISS; scientific satellites like the Hubble; Earth observation satellites from companies like Planet Labs, Umbra, and HawkEye 360; GPS; miniature CubeSats for education and research; and military/defense satellites.

Loading next visibility...
Identifier
45206, 2020-012AE
Orbit
LEO
Country
Flag of USUS
Related business
Manufacturer
SpaceX/Seattle
Mission
Operational Commercial Communications
Bus & Motor
STARLINK, Unknown motor
Mass
260 kg wet, ~248 kg dry
Launch date (UTC)
2020-02-17 (6 years ago)
Launch vehicle
FALCON 9
Launch site
Air Force Eastern Test Range (AFETR)
Object type
Payload
Rocket body
Debris
Shape & HBR
Box + 1 Pan, 4.4 m
Radar Cross Section
13.562 m², Large (>1 m²)

Expand to show TLE details & history
Last TLE update: 1 day ago

TLE from 1 day ago
0 STARLINK-1209
1 45206U 20012AE  25257.19455036  .00002186  00000-0  16563-3 0  9997
2 45206  53.0549  78.9383 0001299  97.0680 263.0456 15.06394581307844
Epoch: 2025-09-14T04:40Z
TLE epoch observation values (Epoch: 2025-09-14T04:40:09.151Z)
Latitude
-0.00006°
Longitude
15.48307°
Altitude
548.216 km
Speed
7.589 km/s
True Right ascension
05h 15m 45s
True Declination
0° 00' 00"
Sunlit
Object was in daylight at epoch
Visualization orbit readout
Latitude
Unknown
Longitude
Unknown
Altitude
Unknown
Speed
Unknown
Apparent Right ascension
Unknown
Apparent Declination
Unknown
Sunlit
N/A
Visualization observer readout
Local Sidereal Time
00:54:08
Azimuth
Unknown
Elevation
Unknown
Doppler factor
Unknown
Orbital elements
Apogee altitude
548.398 km
Perigee altitude
546.599 km
Semi-major axis
6,925.636 km
Eccentricity
0.00013
Inclination
53.0549°
RAAN
78.9383°
Arg. of periapsis
97.068°
True anomaly
263.03082°
Mean anomaly
263.0456°
Eccentric anomaly
263.03821°
Mean motion
3.76577 °/min
Orbital period
95.6 mins
BSTAR
0.00016563
Loading maneuver chart data...
Computing Atmospheric mass density...

Documentation

Showing up to 5 results
|